FW1603 Weather Reports


time (UTC)temp
F
wind
direction
speed
knots
gust
knots
rain 1hr
in
rain 24hr
in
rain mn
in
humidity
%
barometer
mb
20260507011557 80 96 0.0 0.0 0.00 0.00 0.00 61 1014.5
20260507010057 81 126 0.0 0.0 0.00 0.00 0.00 60 1014.5
20260507004556 82 168 0.0 0.0 0.00 0.00 0.00 58 1014.3
20260507003056 82 165 0.0 0.0 0.00 0.00 0.00 57 1014.0
20260507001617 83 185 0.0 0.9 0.00 0.00 0.00 55 1013.6
20260507000058 84 152 0.0 0.0 0.00 0.00 0.00 53 1013.6
20260506234554 84 209 0.0 0.9 0.00 0.00 0.00 51 1013.5
20260506233059 85 191 0.0 1.7 0.00 0.00 0.00 50 1013.6
20260506231553 86 217 0.0 2.6 0.00 0.00 0.00 50 1013.5
20260506230052 87 217 0.0 3.5 0.00 0.00 0.00 48 1013.5
20260506224551 88 167 0.0 0.9 0.00 0.00 0.00 47 1013.7
20260506223104 88 275 0.0 1.7 0.00 0.00 0.00 48 1013.6
20260506221550 90 185 0.0 1.7 0.00 0.00 0.00 48 1013.4
20260506220049 90 161 0.0 1.7 0.00 0.00 0.00 44 1013.3
20260506214547 91 160 0.0 3.5 0.00 0.00 0.00 45 1013.3
20260506213045 92 160 0.0 0.0 0.00 0.00 0.00 42 1013.5
20260506211546 92 182 0.0 0.0 0.00 0.00 0.00 40 1013.5
20260506210045 92 171 0.0 1.7 0.00 0.00 0.00 41 1013.5
20260506204543 92 194 0.0 1.7 0.00 0.00 0.00 40 1013.5
20260506203045 91 142 0.0 0.9 0.00 0.00 0.00 41 1013.7
20260506201540 92 195 0.0 0.9 0.00 0.00 0.00 41 1013.7
20260506200056 92 184 0.0 1.7 0.00 0.00 0.00 42 1013.9
20260506194538 92 51 0.0 0.0 0.00 0.00 0.00 43 1014.0
20260506193034 91 217 0.0 0.9 0.00 0.00 0.00 44 1014.0
20260506191534 92 178 0.0 0.0 0.00 0.00 0.00 42 1014.2
20260506190030 91 183 0.0 0.9 0.00 0.00 0.00 43 1014.4
20260506184526 91 57 0.0 0.0 0.00 0.00 0.00 45 1014.6
20260506183025 91 179 0.0 0.0 0.00 0.00 0.00 45 1014.7
20260506181529 90 207 0.0 0.9 0.00 0.00 0.00 48 1014.9
20260506180031 90 261 0.0 0.9 0.00 0.00 0.00 48 1015.0
20260506174518 89 173 0.0 0.0 0.00 0.00 0.00 49 1015.2
20260506173015 89 11 0.0 0.0 0.00 0.00 0.00 49 1015.3
20260506171518 88 292 0.0 0.0 0.00 0.00 0.00 51 1015.6
20260506170007 87 5 0.0 1.7 0.00 0.00 0.00 53 1015.8
20260506164504 86 164 0.0 0.0 0.00 0.00 0.00 55 1015.9
20260506163007 85 313 0.0 0.0 0.00 0.00 0.00 56 1016.1
20260506161600 84 188 0.0 0.9 0.00 0.00 0.00 58 1016.2
20260506160107 84 159 0.0 0.9 0.00 0.00 0.00 59 1016.3
20260506154553 83 200 0.0 0.9 0.00 0.00 0.00 61 1016.4
20260506153050 82 163 0.0 2.6 0.00 0.00 0.00 62 1016.4
20260506151549 81 202 0.0 0.9 0.00 0.00 0.00 62 1016.5
20260506150045 80 214 0.0 0.0 0.00 0.00 0.00 66 1016.4
20260506144541 79 38 0.0 0.9 0.00 0.00 0.00 67 1016.2
20260506143038 78 213 0.0 0.0 0.00 0.00 0.00 69 1016.1
20260506141535 77 100 0.0 0.0 0.00 0.00 0.00 70 1016.2
20260506140037 76 342 0.0 0.0 0.00 0.00 0.00 71 1016.2
20260506134603 74 360 0.0 0.0 0.00 0.00 0.00 70 1016.2
20260506133026 73 162 0.0 0.0 0.00 0.00 0.00 71 1016.2
20260506131526 72 148 0.0 0.0 0.00 0.00 0.00 71 1016.2
20260506130020 71 197 0.0 0.0 0.00 0.00 0.00 71 1016.0
20260506124516 70 193 0.0 0.0 0.00 0.00 0.00 70 1015.8
20260506123013 68 132 0.0 0.0 0.00 0.00 0.00 67 1015.7
20260506121513 66 59 0.0 0.0 0.00 0.00 0.00 61 1015.8
20260506120014 65 355 0.0 0.0 0.00 0.00 0.00 56 1015.7
20260506114521 64 355 0.0 0.0 0.00 0.00 0.00 57 1015.4
20260506113010 63 355 0.0 0.0 0.00 0.00 0.00 58 1015.3
20260506111509 63 355 0.0 0.0 0.00 0.00 0.00 60 1015.2
20260506110014 63 355 0.0 0.0 0.00 0.00 0.00 62 1015.2
20260506104506 63 355 0.0 0.0 0.00 0.00 0.00 63 1015.1
20260506103017 63 355 0.0 0.0 0.00 0.00 0.00 65 1014.9
20260506101505 63 355 0.0 0.0 0.00 0.00 0.00 66 1014.7
20260506100003 63 355 0.0 0.0 0.00 0.00 0.00 67 1014.7
20260506094502 64 355 0.0 0.0 0.00 0.00 0.00 68 1014.7
20260506093101 64 355 0.0 0.0 0.00 0.00 0.00 69 1014.7
20260506091600 64 355 0.0 0.0 0.00 0.00 0.00 70 1014.7
20260506090059 64 355 0.0 0.0 0.00 0.00 0.00 71 1014.6
20260506084605 64 355 0.0 0.0 0.00 0.00 0.00 71 1014.6
20260506083115 64 355 0.0 0.0 0.00 0.00 0.00 71 1014.6
20260506081556 65 355 0.0 0.0 0.00 0.00 0.00 72 1014.7
20260506073052 65 355 0.0 0.0 0.00 0.00 0.00 72 1014.4
20260506071554 65 355 0.0 0.0 0.00 0.00 0.00 72 1014.5
20260506061543 67 355 0.0 0.0 0.00 0.00 0.00 70 1015.1
20260506044529 69 355 0.0 0.0 0.00 0.00 0.00 66 1015.7
20260506043027 69 355 0.0 0.0 0.00 0.00 0.00 66 1015.8
20260506041527 70 355 0.0 0.0 0.00 0.00 0.00 66 1015.8
20260506040027 70 355 0.0 0.0 0.00 0.00 0.00 65 1015.9
20260506034523 71 355 0.0 0.0 0.00 0.00 0.00 64 1016.1
20260506033022 71 355 0.0 0.0 0.00 0.00 0.00 62 1015.8
20260506031528 72 355 0.0 0.0 0.00 0.00 0.00 61 1015.6
20260506030022 72 355 0.0 0.0 0.00 0.00 0.00 61 1015.3
20260506024534 72 355 0.0 0.0 0.00 0.00 0.00 60 1015.2
20260506023020 73 355 0.0 0.0 0.00 0.00 0.00 60 1015.1
20260506021520 74 350 0.0 0.0 0.00 0.00 0.00 59 1015.1
20260506020021 74 13 0.0 0.0 0.00 0.00 0.00 59 1014.7
20260506014519 75 5 0.0 0.0 0.00 0.00 0.00 58 1014.8
20260506013019 76 9 0.0 0.0 0.00 0.00 0.00 57 1014.8